Sioux Falls, SD

4:56 AM CDT on September 23, 2019 (GMT -0500)
Foss

Weather History for KFSD - August, 2019

Change the Weather History Date:

Sunday, August 25, 2019

  Actual Average Record
Temperature  
Mean Temperature 67 °F 69 °F  
Max Temperature 72 °F 80 °F 103 °F (1955)
Min Temperature 62 °F 58 °F 39 °F (1910)
Degree Days  
Heating Degree Days 0 1  
Month to date heating degree days 0 12  
Since 1 June heating degree days 20 71  
Since 1 July heating degree days 0 20  
Cooling Degree Days 2 5  
Month to date cooling degree days 169 170  
Year to date cooling degree days 697 597  
Since 1 June cooling degree days 682 561  
Growing Degree Days 17 (Base 50)    
Moisture  
Dew Point 62 °F    
Average Humidity 85    
Maximum Humidity 93    
Minimum Humidity 76    
Precipitation  
Precipitation 0.11 in 0.10 in 1.68 in (1967)
Month to date precipitation 1.95 2.46  
Year to date precipitation 29.14 18.80  
Snow  
Snow 0.00 in 0.00 in 0.00 in ()
Month to date snowfall T 0.0  
Since 1 June snowfall T 0.0  
Since 1 July snowfall T 0.0  
Snow Depth 0.00 in    
Sea Level Pressure  
Sea Level Pressure 29.89 in    
Wind  
Wind Speed 11 mph ()    
Max Wind Speed 18 mph    
Max Gust Speed 25 mph    
Visibility 8.1 miles    
Events Rain    
T = Trace of Precipitation, MM = Missing Value Source: Averaged Metar Reports

Daily Weather History Graph

Daily Weather History Graph

Search for Another Location

Airport or City:

Astronomy

Aug. 25, 2019 Rise Set
Actual Time 6:42 AM CDT 8:14 PM CDT
Civil Twilight 6:12 AM CDT 8:44 PM CDT
Nautical Twilight 5:36 AM CDT 9:20 PM CDT
Astronomical Twilight 4:57 AM CDT 9:59 PM CDT
Moon 1:12 AM CDT (8/25) 4:43 PM CDT (8/25)
Length of Visible Light 14h 32m
Length of Day
13h 31m
Waning Crescent, 29% of the Moon is Illuminated
Aug 25
Waning Crescent
Aug 30
New
Sep 5
First Quarter
Sep 13
Full
Sep 21
Last Quarter

Hourly Weather History & Observations

Time (CDT) Temp. Dew Point Humidity Pressure Visibility Wind Dir Wind Speed Gust Speed Precip Events Conditions
12:56 AM 64.9 °F 57.9 °F 78% 29.99 in 10.0 mi SE 16.1 mph 24.2 mph 0.00 in   Overcast
1:56 AM 64.9 °F 57.9 °F 78% 29.98 in 10.0 mi SE 11.5 mph - N/A   Overcast
2:56 AM 64.9 °F 59.0 °F 81% 29.95 in 10.0 mi SE 13.8 mph 24.2 mph N/A   Overcast
3:56 AM 63.0 °F 60.1 °F 90% 29.95 in 3.0 mi SSE 13.8 mph - 0.01 in Rain Light Rain
4:00 AM 63.0 °F 61.0 °F 93% 29.96 in 2.5 mi SSE 12.7 mph - 0.02 in Rain Heavy Rain
4:13 AM 63.0 °F 61.0 °F 93% 29.96 in 4.0 mi SSE 13.8 mph 21.9 mph 0.05 in Rain Light Rain
4:56 AM 63.0 °F 60.1 °F 90% 29.94 in 9.0 mi SSE 15.0 mph 23.0 mph 0.05 in   Overcast
5:34 AM 63.0 °F 60.1 °F 90% 29.94 in 10.0 mi SSE 12.7 mph - 0.00 in Rain Light Rain
5:56 AM 63.0 °F 60.1 °F 90% 29.93 in 9.0 mi SSE 12.7 mph 25.3 mph 0.01 in Rain Light Rain
6:56 AM 63.0 °F 60.1 °F 90% 29.92 in 10.0 mi SSE 10.4 mph 20.7 mph 0.02 in Rain Light Rain
7:56 AM 63.0 °F 60.1 °F 90% 29.91 in 10.0 mi SE 9.2 mph - 0.01 in   Overcast
8:56 AM 63.0 °F 60.1 °F 90% 29.91 in 8.0 mi SSE 8.1 mph - 0.01 in Rain Light Rain
9:56 AM 66.0 °F 61.0 °F 84% 29.91 in 10.0 mi SSE 9.2 mph - 0.00 in   Overcast
10:56 AM 66.0 °F 61.0 °F 84% 29.91 in 10.0 mi SSE 9.2 mph - 0.00 in   Overcast
11:47 AM 68.0 °F 62.6 °F 83% 29.93 in 10.0 mi SSE 12.7 mph - N/A   Overcast
11:56 AM 69.1 °F 62.1 °F 78% 29.91 in 10.0 mi South 9.2 mph - N/A   Overcast
12:23 PM 70.0 °F 62.1 °F 76% 29.91 in 10.0 mi SSE 12.7 mph - N/A   Overcast
12:56 PM 69.1 °F 62.1 °F 78% 29.88 in 10.0 mi SE 11.5 mph - N/A   Overcast
1:20 PM 70.0 °F 63.0 °F 78% 29.88 in 10.0 mi SSE 10.4 mph - N/A   Overcast
1:56 PM 70.0 °F 62.1 °F 76% 29.87 in 10.0 mi SSE 16.1 mph - N/A   Overcast
2:56 PM 70.0 °F 63.0 °F 78% 29.86 in 10.0 mi SE 12.7 mph - N/A   Overcast
3:56 PM 71.1 °F 64.0 °F 78% 29.84 in 10.0 mi SE 12.7 mph - N/A   Overcast
4:56 PM 70.0 °F 64.0 °F 81% 29.83 in 9.0 mi SE 13.8 mph - 0.00 in Rain Light Rain
5:56 PM 70.0 °F 64.0 °F 81% 29.83 in 10.0 mi SSE 15.0 mph - 0.00 in   Overcast
6:23 PM 70.0 °F 64.0 °F 81% 29.83 in 10.0 mi SE 10.4 mph - N/A   Overcast
6:56 PM 69.1 °F 64.9 °F 87% 29.82 in 10.0 mi SSE 11.5 mph - N/A   Overcast
7:43 PM 68.0 °F 64.9 °F 90% 29.82 in 2.5 mi SSE 15.0 mph 23.0 mph N/A   Overcast
7:49 PM 68.0 °F 64.9 °F 90% 29.82 in 2.5 mi SSE 15.0 mph 23.0 mph N/A   Overcast
7:56 PM 68.0 °F 64.9 °F 90% 29.81 in 2.0 mi SSE 10.4 mph - N/A   Overcast
8:11 PM 66.9 °F 64.9 °F 93% 29.82 in 4.0 mi SSE 12.7 mph - N/A   Overcast
8:56 PM 66.9 °F 64.9 °F 93% 29.82 in 6.0 mi SSE 13.8 mph - N/A   Overcast
9:56 PM 66.9 °F 64.9 °F 93% 29.83 in 10.0 mi SSE 12.7 mph 25.3 mph N/A   Overcast
11:56 PM 66.9 °F 64.9 °F 93% 29.81 in 6.0 mi SSE 9.2 mph - N/A   Overcast